Terminal Aerodrome Forecast
Issued by NWS Austin/San Antonio, TX

Home | Current Version | Previous Version | Text Only | Print | Product List | Glossary On
Versions: 1 2 3 4 5 6 7 8 9 10 11 12 13 14 15 16 17 18 19 20 21
000
FTUS44 KEWX 170500 RRA
TAFAUS
TAF
KAUS 170543Z 1706/1812 16011KT P6SM BKN250
     FM170900 15007KT 5SM BR BKN011
     FM171100 15007KT 5SM -DZ BR OVC009
     FM171700 14007KT P6SM BKN017
     FM180300 05007KT 4SM -DZ BR OVC009=

USA.gov is the U.S. government's official web portal to all federal, state and local government web resources and services.